Home   Weather   Thalwil   Past weeks

Flag for Switzerland Past Weather in Thalwil, Zurich, Switzerland — Yesterday and Last 2 Weeks

Now
37 °F

Chilly.


Feels Like: 37 °F
Forecast: 37 / 44 °F
Wind: 2 mph from Northeast

Location: Zuerich-Fluntern

Current Time: Apr 26, 2017 at 10:04:59 pm

Latest Report: Apr 26, 2017 at 9:00 pm


Visibility: N/A

Pressure: 29.92 "Hg

Humidity: 93%

Dew Point: 35 °F

Location of ThalwilLocation

Past Weather in Thalwil — Graph

°F

Thalwil Temperature Yesterday

Maximum temperature yesterday: 54 °F (at 6:00 am)
Minimum temperature yesterday: 45 °F (at 11:00 pm)
Average temperature yesterday: 50 °F

High & Low Weather Summary for the Past Weeks

 TemperatureHumidityPressure
High67 °F (Apr 12, 5:00 pm)100% (Apr 26, 10:00 am)30.57 "Hg (Apr 26, 10:00 am)
Low28 °F (Apr 20, 6:00 am)26% (Apr 21, 6:00 pm)29.74 "Hg (Apr 26, 12:00 am)
Average46 °F67%30.15 "Hg
* Reported Apr 11 8:00 pm — Apr 26 8:00 pm, Thalwil, Weather by CustomWeather, © 2017

Note: Actual official high and low records may vary slightly from our data, if they occured in-between our weather recording intervals... More about our weather records

Advertising

Thalwil Weather History for the Previous 24 Hours

Scroll right to see more
 ConditionsComfort  
Time TempWeatherWind HumidityBarometerVisibility
8:00 pm
Wed, Apr 26
37 °FChilly.2 mph93%29.91 "HgN/A
7:00 pm37 °FChilly.3 mph94%29.90 "HgN/A
6:00 pm38 °FChilly.3 mph91%29.89 "HgN/A
5:00 pm38 °FChilly.5 mph91%29.90 "HgN/A
4:00 pm37 °FChilly.5 mph92%29.90 "HgN/A
3:00 pm38 °FChilly.6 mph92%29.89 "HgN/A
2:00 pm36 °FChilly.2 mph93%29.89 "HgN/A
1:00 pm35 °FChilly.2 mph94%29.88 "HgN/A
12:00 pm34 °FChilly.2 mph95%29.88 "HgN/A
11:00 am32 °FChilly.1 mph98%29.86 "HgN/A
10:00 am32 °FChilly.No wind100%29.85 "HgN/A
9:00 am34 °FChilly.3 mph97%29.83 "HgN/A
8:00 am35 °FOvercast.6 mph97%29.81 "HgN/A
7:00 am35 °FChilly.3 mph96%29.80 "HgN/A
6:00 am36 °FChilly.7 mph97%29.79 "HgN/A
5:00 am37 °FChilly.6 mph95%29.79 "HgN/A
4:00 am37 °FChilly.7 mph98%29.79 "HgN/A
3:00 am38 °FChilly.8 mph95%29.80 "HgN/A
2:00 am41 °FQuite cool.9 mph96%29.77 "HgN/A
1:00 am44 °FQuite cool.No wind96%29.75 "HgN/A
12:00 am45 °FQuite cool.1 mph95%29.74 "HgN/A
11:00 pm
Tue, Apr 25
45 °FQuite cool.2 mph95%29.74 "HgN/A
10:00 pm45 °FCool.1 mph94%29.77 "HgN/A
Weather by CustomWeather, © 2017

See weather overviewHow to use our weather pages